Weather History for KMNN - October, 2011

Change the Weather History Date:

Thursday, October 20, 2011

  Actual Average (KDLZ) Record (KDLZ)
Temperature  
Mean Temperature 45 °F -  
Max Temperature 48 °F 58 °F 87 °F (1953)
Min Temperature 42 °F 36 °F 22 °F (1972)
Degree Days  
Heating Degree Days 20    
Moisture  
Dew Point 42 °F    
Average Humidity 93    
Maximum Humidity 100    
Minimum Humidity 87    
Precipitation  
Precipitation 0.23 in - - ()
Sea Level Pressure  
Sea Level Pressure 29.40 in    
Wind  
Wind Speed 17 mph (WSW)    
Max Wind Speed 22 mph    
Max Gust Speed 32 mph    
Visibility 6 miles    
Events Rain    
Averages and records for this station are not official NWS values.
T = Trace of Precipitation, MM = Missing Value Source: NWS Daily Summary

Daily Weather History Graph

Daily Weather History Graph

Search for Another Location

Airport or City:

Trip Planner

Search our weather history database for the weather conditions in past years. The results will help you decide how hot, cold, wet, or windy it might be!

Date:

Astronomy

Oct. 20, 2011 Rise Set
Actual Time 7:48 AM EDT 6:45 PM EDT
Civil Twilight 7:20 AM EDT 7:12 PM EDT
Nautical Twilight 6:48 AM EDT 7:44 PM EDT
Astronomical Twilight 6:17 AM EDT 8:16 PM EDT
Moon 12:30 AM EDT (10/20) 2:55 PM EDT (10/20)
Length of Visible Light 11h 52m
Length of Day
10h 56m
Last Quarter, 44% of the Moon is Illuminated
Oct 20
Last Quarter
Oct 26
New
Nov 2
First Quarter
Nov 10
Full
Nov 18
Last Quarter

Hourly Weather History & Observations

Time (EDT) Temp. Windchill Dew Point Humidity Pressure Visibility Wind Dir Wind Speed Gust Speed Precip Events Conditions
12:53 AM 48.0 °F - 46.9 °F 96% 29.19 in 4.0 mi SSW 17.3 mph 24.2 mph 0.00 in   Overcast
1:53 AM 46.9 °F - 45.0 °F 93% 29.17 in 9.0 mi SSW 20.7 mph - 0.01 in Rain Light Rain
2:53 AM 46.0 °F 38.5 °F 44.1 °F 93% 29.16 in 6.0 mi SSW 19.6 mph 28.8 mph 0.00 in   Overcast
3:34 AM 44.6 °F 37.2 °F 44.6 °F 100% 29.16 in 2.5 mi SSW 17.3 mph 27.6 mph N/A   Overcast
3:53 AM 45.0 °F 37.9 °F 44.1 °F 97% 29.18 in 2.0 mi South 16.1 mph 25.3 mph 0.00 in Rain Light Rain
4:53 AM 45.0 °F 37.4 °F 44.1 °F 97% 29.17 in 2.5 mi South 18.4 mph 24.2 mph 0.01 in Rain Light Rain
5:53 AM 45.0 °F 38.2 °F 44.1 °F 97% 29.18 in 3.0 mi SSW 15.0 mph - 0.02 in Rain Light Rain
6:28 AM 44.6 °F 38.4 °F 42.8 °F 93% 29.18 in 10.0 mi SW 12.7 mph - 0.01 in Rain Light Rain
6:51 AM 44.6 °F 37.4 °F 42.8 °F 93% 29.19 in 6.0 mi SW 16.1 mph 20.7 mph 0.01 in Rain Light Rain
7:35 AM 44.6 °F 37.8 °F 42.8 °F 93% 29.20 in 6.0 mi SW 15.0 mph - 0.01 in Rain Light Rain
7:53 AM 43.0 °F 35.7 °F 42.1 °F 97% 29.21 in 10.0 mi SW 15.0 mph 23.0 mph 0.01 in   Overcast
8:00 AM 42.8 °F 35.4 °F 41.0 °F 93% 29.21 in 9.0 mi SSW 15.0 mph 21.9 mph N/A   Overcast
8:36 AM 42.8 °F 34.3 °F 41.0 °F 93% 29.23 in 9.0 mi SSW 19.6 mph 25.3 mph N/A   Overcast
8:53 AM 42.1 °F 34.5 °F 39.9 °F 92% 29.24 in 10.0 mi SSW 15.0 mph 23.0 mph N/A   Overcast
9:50 AM 42.8 °F 34.5 °F 39.2 °F 87% 29.25 in 9.0 mi SSW 18.4 mph 26.5 mph 0.01 in   Overcast
9:53 AM 42.1 °F 33.9 °F 39.9 °F 92% 29.26 in 9.0 mi SSW 17.3 mph 24.2 mph 0.01 in   Overcast
10:34 AM 42.8 °F 35.8 °F 41.0 °F 93% 29.27 in 6.0 mi SW 13.8 mph 24.2 mph 0.01 in Rain Light Rain
10:53 AM 43.0 °F 35.7 °F 41.0 °F 93% 29.29 in 6.0 mi SW 15.0 mph 24.2 mph 0.01 in   Overcast
11:36 AM 42.8 °F 34.5 °F 41.0 °F 93% 29.29 in 2.5 mi WSW 18.4 mph 26.5 mph 0.02 in Rain Light Rain
11:53 AM 43.0 °F 35.1 °F 42.1 °F 97% 29.31 in 2.0 mi WSW 17.3 mph 28.8 mph 0.03 in Rain Light Rain
12:03 PM 42.8 °F 34.5 °F 41.0 °F 93% 29.31 in 1.8 mi WSW 18.4 mph 24.2 mph 0.00 in Rain Light Rain
12:12 PM 42.8 °F 35.1 °F 41.0 °F 93% 29.31 in 2.0 mi WSW 16.1 mph 25.3 mph 0.01 in Rain Light Rain
12:53 PM 44.1 °F 36.5 °F 42.1 °F 93% 29.35 in 3.0 mi West 17.3 mph 24.2 mph 0.02 in Rain Light Rain
1:53 PM 44.1 °F 37.1 °F 42.1 °F 93% 29.39 in 4.0 mi West 15.0 mph 26.5 mph 0.02 in Rain Light Rain
2:53 PM 45.0 °F 38.2 °F 42.1 °F 90% 29.43 in 7.0 mi West 15.0 mph 21.9 mph 0.03 in Rain Light Rain
3:16 PM 44.6 °F 37.4 °F 41.0 °F 87% 29.43 in 10.0 mi West 16.1 mph 25.3 mph 0.01 in Rain Light Rain
4:53 PM 45.0 °F 39.3 °F 42.1 °F 90% 29.52 in 7.0 mi West 11.5 mph 23.0 mph 0.00 in   Overcast
5:14 PM 44.6 °F 39.2 °F 42.8 °F 93% 29.52 in 8.0 mi West 10.4 mph 21.9 mph N/A   Overcast
5:24 PM 44.6 °F 38.4 °F 42.8 °F 93% 29.52 in 9.0 mi WSW 12.7 mph - 0.00 in Rain Light Rain
5:53 PM 45.0 °F 38.2 °F 43.0 °F 93% 29.56 in 7.0 mi WSW 15.0 mph 24.2 mph 0.02 in Rain Light Rain
8:25 PM 44.6 °F 37.8 °F 42.8 °F 93% 29.67 in 6.0 mi West 15.0 mph 24.2 mph 0.01 in Rain Light Rain
8:48 PM 42.8 °F 34.3 °F 41.0 °F 93% 29.69 in 9.0 mi West 19.6 mph 32.2 mph 0.01 in Rain Light Rain
8:53 PM 43.0 °F 34.8 °F 41.0 °F 93% 29.71 in 7.0 mi West 18.4 mph 29.9 mph 0.02 in Rain Light Rain
9:00 PM 42.8 °F 33.8 °F 41.0 °F 93% 29.69 in 6.0 mi West 21.9 mph 27.6 mph 0.00 in Rain Light Rain
9:15 PM 42.8 °F 34.3 °F 39.2 °F 87% 29.70 in 6.0 mi West 19.6 mph 32.2 mph 0.00 in Rain Light Rain
9:28 PM 42.8 °F 34.5 °F 39.2 °F 87% 29.71 in 8.0 mi West 18.4 mph 28.8 mph 0.01 in Rain Light Rain
9:50 PM 42.8 °F 34.8 °F 39.2 °F 87% 29.73 in 6.0 mi West 17.3 mph 29.9 mph 0.01 in Rain Light Rain
9:53 PM 42.1 °F 34.5 °F 39.9 °F 92% 29.75 in 6.0 mi West 15.0 mph 29.9 mph 0.02 in Rain Light Rain
10:53 PM 42.1 °F 33.6 °F 39.0 °F 89% 29.78 in 10.0 mi West 18.4 mph 26.5 mph 0.00 in   Overcast
11:53 PM 42.1 °F 35.2 °F 39.0 °F 89% 29.81 in 10.0 mi West 12.7 mph 26.5 mph N/A   Overcast